KSFOPKMJ

Guest
Details From KSFO - San Francisco Intl
To PKMJ - Marshall Islands Intl
Flight Number -
Tags Generated
Created
Modified
Stats Distance 4,025 nm / 7,455 km
Max Altitude 0 ft / 0 m
Waypoints 3
Social Downloads 1
Likes 0
Share VATSIM

Download

Looking for another format? Having issues loading an existing format? Contact us
Advertisement - Login to hide

Notes

Generated

Route

KSFO R2385 PKMJ

ID Type Via Altitude Latitude Longitude Leg Dist Tot Dist Heading (true) Name
O KSFO APT - 0 ft / 0 m 37.60898˚ -122.38220˚ - 0 nm - -
R2385 FIX - 0 ft / 0 m 7.06216˚ 171.26144˚ 4025 nm 4025 nm 261° / 232° -
O PKMJ APT - 0 ft / 0 m 7.06216˚ 171.26144˚ 0 nm 4025 nm 0° / 180° -

Altitude Profile

Advertisement - Login to hide

Weather


0- 5 10 15 20 25 30 35+ Temperature / ° C

Clouds and Precipitation
Forecast for 2018-05-22 06:00 UTC. Updated 4 hours ago

Ground ~20,000 ft ~40,000 ft Winds

KSFO

Details ICAO KSFO (SFO)
Name San Francisco Intl
Region United States
Timezone America/Los_Angeles (UTC-7.0)
Stats Elevation 13 ft / 4 m (AMSL)
Location 37.618674° -122.375008°
Runways 4
Magnetic Variation 13.422° E

METAR

KSFO 220756Z 25013KT 10SM FEW008 SCT010 OVC012 13/09 A2988 RMK AO2 SLP117 T01330094 401940111

Decode

TAF

TAF KSFO 220536Z 2206/2312 26012KT P6SM OVC012 FM221730 25008KT P6SM BKN018 FM222000 26012KT P6SM SCT018 SCT100 FM222200 27020G30KT P6SM SCT012 FM230400 27017G25KT P6SM OVC015 FM230500 27012KT P6SM OVC012

Decode

Departure Runways

ID Width Length Bearing (true) Bearing (mag) Surface Threshold Offset Overrun Length
01L 200 ft / 61 m 7,509 ft / 2,289 m 27.70° 14.28° Asphalt 492 ft / 150 m 0 ft / 0 m
01R 200 ft / 61 m 8,907 ft / 2,715 m 27.71° 14.29° Asphalt 492 ft / 150 m 0 ft / 0 m
10L 200 ft / 61 m 11,856 ft / 3,614 m 117.89° 104.47° Asphalt 0 ft / 0 m 860 ft / 262 m
10R 200 ft / 61 m 10,589 ft / 3,228 m 117.90° 104.48° Asphalt 0 ft / 0 m 0 ft / 0 m
19L 200 ft / 61 m 8,907 ft / 2,715 m 207.72° 194.30° Asphalt 0 ft / 0 m 0 ft / 0 m
19R 200 ft / 61 m 7,509 ft / 2,289 m 207.70° 194.28° Asphalt 0 ft / 0 m 0 ft / 0 m
28L 200 ft / 61 m 10,589 ft / 3,228 m 297.92° 284.50° Asphalt 0 ft / 0 m 341 ft / 104 m
28R 200 ft / 61 m 11,856 ft / 3,614 m 297.91° 284.49° Asphalt 0 ft / 0 m 341 ft / 104 m

PKMJ

Details ICAO PKMJ (MAJ)
Name MARSHALL ISLANDS INTL
Region Marshall Islands
Timezone Pacific/Majuro (UTC+12.0)
Stats Elevation 6 ft / 2 m (AMSL)
Location 7.064760° 171.272023°
Runways 1
Magnetic Variation 8.436° E

METAR

Not found

TAF

TAF TAF PKMJ 220522Z 2206/2306 10011KT P6SM VCSH SCT015 SCT045 BKN120

Decode

Destination Runways

ID Width Length Bearing (true) Bearing (mag) Surface Threshold Offset Overrun Length
07 150 ft / 46 m 7,898 ft / 2,407 m 76.08° 67.64° Asphalt 0 ft / 0 m 200 ft / 61 m
25 150 ft / 46 m 7,898 ft / 2,407 m 256.08° 247.64° Asphalt 0 ft / 0 m 200 ft / 61 m